Погода в Вильене

Бразилия     12°43′18″S   60°06′27″W
темп.,
°C
ветер,
м/с
пор.,
м/с
влажн.,
%
обл.,
%
осадки,
мм/ч
давл.,
гПа
погр.,
м
27 февраля, сб
сб2723:00+22ссз1397100 0.0 101094
02:00+21ссз1298100 0.0 100990
05:00+21ссз2599100 1.3 1009199
08:00+22зсз2697100 3.1 1011272
11:00+22сз2596100 0.4 1011339
14:00+26зсз238593 3.3 1007658
17:00+25з1294100 3.9 100695
20:00+22зсз1297100 6.4 100753
28 февраля, вс
вс2823:00+22зсз1297100 1.4 100929
02:00+21ссз1399100 5.2 100793
05:00+21зсз149996 1.7 1007125
08:00+23з129698 5.1 100999
11:00+26зюз2488100 3.9 1008752
14:00+27ю138691 7.3 1005732
17:00+26ююв0190100 5.1 1003218
20:00+22ссв1294100 6.3 100524
1 марта, пн
пн123:00+21ссз129680 0.3 100739
02:00+20сз259890 0.3 1006143
05:00+21ссз279874 0.0 1007362
08:00+21ссз259587 0.0 1008430
11:00+25сз2481100 0.1 1009638
14:00+27зсз227392 0.6 1005909
17:00+25ссз249350 3.5 1004485
20:00+22с129854 5.6 100669
2 марта, вт
вт223:00+21ссз2799100 0.9 1009241
02:00+21ссз289996 1.6 1008484
05:00+20ссз2799100 0.2 1008427
08:00+21сз279698 0.6 1011507
11:00+24сз249392 2.1 1011681
14:00+24с249489 10.9 1008555
17:00+24с2694100 4.5 1006640
20:00+21ссв2699100 9.8 1009221
3 марта, ср
ср323:00+21с159976 0.5 1012208
02:00+20с179988 0.5 1011339
05:00+20с1699100 0.0 1011258
08:00+22с2596100 0.1 1014448
11:00+24ссв2592100 2.3 1013752
14:00+25ссз369099 8.7 1010834
17:00+23с2696100 4.9 1009374
20:00+21сз2898100 6.8 1011382